Stations météo

Publicité
Cherbourg, France (7024): Température de l'air & dewpoint: 14.09.2018 06:00:00 - 20.09.2018 06:00:00 (CEST)Cherbourg, France (7024): Température de l'air 5cm: 14.09.2018 06:00:00 - 20.09.2018 06:00:00 (CEST)Cherbourg, France (7024): Température de l'air -20cm & Température de l'air -100cm: 14.09.2018 06:00:00 - 20.09.2018 06:00:00 (CEST)Cherbourg, France (7024): Vitesse du vent & gusts: 14.09.2018 06:00:00 - 20.09.2018 06:00:00 (CEST)Cherbourg, France (7024): Direction du vent: 14.09.2018 06:00:00 - 20.09.2018 06:00:00 (CEST)Cherbourg, France (7024): reduced air pressure: 14.09.2018 06:00:00 - 20.09.2018 06:00:00 (CEST)Cherbourg, France (7024): visibility: 14.09.2018 06:00:00 - 20.09.2018 06:00:00 (CEST)Cherbourg, France (7024): Ensoleillement: 14.09.2018 06:00:00 - 20.09.2018 06:00:00 (CEST)Cherbourg, France (7024): Quantités de précipitations: 14.09.2018 06:00:00 - 20.09.2018 06:00:00 (CEST)
Date & Time tt [°C] td [°C] tt 5cm [°C] tt -20cm [°C] tt -100cm [°C] ff [km/h] ff [knt] fx [km/h] fx [knt] dd ppp [hPa] vv [km] sd [min] rr [mm]
20.09.2018 06:00:00 17,1 13,8 16,0 15,9 15,2 30 16 45 25 SW 1015,8 18 0 0,0
20.09.2018 05:00:00 16,9 14,0 16,0 15,9 15,2 27 15 49 26 SW 1016,0 16 0 0,0
20.09.2018 04:00:00 16,9 13,6 16,1 16,0 15,2 29 16 45 25 SW 1016,4 17 0 0,0
20.09.2018 03:00:00 17,2 14,7 16,0 16,0 15,2 27 15 43 23 SSW 1016,3 15 0 0,0
20.09.2018 02:00:00 16,6 15,0 15,7 16,0 15,2 23 13 41 22 SSW 1016,7 13 0 0,0
20.09.2018 01:00:00 16,5 14,9 15,0 16,1 15,2 19 10 29 15 SSW 1017,1 13 0 0,0
20.09.2018 00:00:00 16,1 14,5 15,3 16,1 15,2 16 9 23 13 SSW 1017,5 10 0 0,0
19.09.2018 23:00:00 16,5 14,5 15,5 16,1 15,2 16 9 27 14 SW 1017,8 12 0 0,0
19.09.2018 22:00:00 16,7 14,2 15,9 16,1 15,2 17 9 31 17 SW 1017,7 12 0 0,0
19.09.2018 21:00:00 18,0 14,3 17,2 16,1 15,2 22 12 43 23 WSW 1017,6 15 0 0,0
19.09.2018 20:00:00 18,8 14,7 18,5 16,1 15,2 19 10 35 19 WSW 1017,2 18 35 0,0
19.09.2018 19:00:00 20,1 14,7 20,6 16,1 15,2 27 15 45 25 WSW 1016,9 20 53 0,0
19.09.2018 18:00:00 20,1 14,5 20,2 16,0 15,2 28 15 49 27 WSW 1016,7 19 5 0,0
19.09.2018 17:00:00 20,7 14,1 20,8 16,0 15,2 29 16 51 27 WSW 1016,6 19 10 0,0
19.09.2018 16:00:00 21,6 14,5 21,9 15,9 15,2 34 18 58 31 SW 1016,6 47 14 0,0
19.09.2018 15:00:00 21,0 14,4 22,4 15,8 15,2 30 16 59 32 SW 1016,6 20 25 0,0
19.09.2018 14:00:00 20,8 14,4 21,5 15,7 15,2 36 19 63 34 SSW 1016,4 19 21 0,0
19.09.2018 13:00:00 20,5 13,9 21,7 15,7 15,2 37 20 55 30 SW 1016,3 19 31 0,0
19.09.2018 12:00:00 20,0 14,4 19,2 15,6 15,2 33 18 49 26 SSW 1016,1 19 12 0,0
19.09.2018 11:00:00 18,4 14,5 19,0 15,6 15,2 30 16 45 24 SSW 1016,4 16 18 0,0
19.09.2018 10:00:00 18,2 14,5 17,3 15,6 15,2 31 17 48 26 SSW 1016,0 15 10 0,0
19.09.2018 09:00:00 17,2 14,3 16,3 15,7 15,2 24 13 45 24 SSW 1015,4 14 1 0,0
19.09.2018 08:00:00 16,5 14,3 15,9 15,7 15,2 19 10 39 21 S 1015,1 12 0 0,0
19.09.2018 07:00:00 16,4 14,4 15,4 15,7 15,2 22 12 37 20 SSW 1014,7 12 0 0,0
19.09.2018 06:00:00 16,1 13,9 15,4 15,7 15,2 21 11 35 19 SSW 1014,9 12 0 0,0
19.09.2018 05:00:00 16,1 14,1 15,2 15,8 15,2 20 11 31 17 SSW 1014,9 12 0 0,0
19.09.2018 04:00:00 16,3 14,0 15,5 15,8 15,2 20 11 30 16 SSW 1015,0 13 0 0,0
19.09.2018 03:00:00 16,9 13,6 16,1 15,9 15,2 23 12 33 18 SSW 1015,1 16 0 0,0
19.09.2018 02:00:00 16,7 13,0 14,6 15,9 15,2 19 11 29 16 SW 1015,4 18 0 0,0
19.09.2018 01:00:00 15,5 12,8 14,5 16,0 15,3 15 8 21 11 SW 1015,4 18 0 0,0
19.09.2018 00:00:00 15,6 12,7 14,0 16,0 15,3 11 6 15 8 SSW 1015,3 18 0 0,0
18.09.2018 23:00:00 16,2 12,6 15,3 16,0 15,2 10 6 13 7 SW 1015,4 19 0 0,0
18.09.2018 22:00:00 16,5 12,5 14,5 16,0 15,2 9 5 13 7 SSW 1015,4 20 0 0,0
18.09.2018 21:00:00 16,2 12,0 14,5 16,0 15,2 10 5 16 9 WSW 1015,1 19 0 0,0
18.09.2018 20:00:00 18,6 12,6 18,1 16,0 15,2 11 6 21 11 WSW 1014,7 20 4 0,0
18.09.2018 19:00:00 19,5 12,3 19,2 16,0 15,2 16 9 32 17 SW 1014,3 20 43 0,0
18.09.2018 18:00:00 21,0 12,9 22,8 15,9 15,2 21 11 38 20 SW 1014,2 19 45 0,0
18.09.2018 17:00:00 21,5 13,1 22,4 15,8 15,2 26 14 46 25 WSW 1014,3 20 41 0,0
18.09.2018 16:00:00 21,0 12,7 22,9 15,7 15,3 34 18 50 27 SW 1014,3 28 44 0,0
18.09.2018 15:00:00 20,8 13,2 20,7 15,6 15,2 28 15 50 27 SW 1014,1 19 40 0,0
18.09.2018 14:00:00 19,7 13,8 19,6 15,6 15,2 29 15 48 26 SW 1013,9 19 11 0,0
18.09.2018 13:00:00 18,4 12,8 19,4 15,6 15,2 34 18 55 30 WSW 1013,7 18 8 0,0
18.09.2018 12:00:00 17,9 12,6 19,3 15,6 15,2 35 19 61 33 WSW 1013,1 15 6 0,0
18.09.2018 11:00:00 17,9 12,6 17,4 15,6 15,2 40 21 56 30 WSW 1012,3 13 12 0,0
18.09.2018 10:00:00 17,3 12,6 17,7 15,6 15,3 37 20 60 32 WSW 1011,6 13 3 0,0
18.09.2018 09:00:00 18,0 12,0 17,3 15,6 15,3 31 17 61 33 WSW 1010,4 14 45 0,0
18.09.2018 08:00:00 17,5 12,0 17,0 15,6 15,2 34 18 66 35 WSW 1009,7 19 0 0,0
18.09.2018 07:00:00 18,1 13,0 17,7 15,6 15,2 30 16 60 33 SW 1009,1 19 0 0,0
18.09.2018 06:00:00 18,2 13,9 17,7 15,6 15,2 35 19 58 31 SW 1009,0 18 0 0,0
18.09.2018 05:00:00 17,9 15,0 16,5 15,6 15,2 27 15 49 26 SSW 1009,0 19 0 0,0
18.09.2018 04:00:00 17,2 14,8 16,5 15,6 15,3 27 15 41 22 S 1008,7 16 0 0,0
18.09.2018 03:00:00 17,6 14,9 16,2 15,7 15,3 27 15 44 24 SSW 1009,1 16 0 0,0
18.09.2018 02:00:00 16,8 14,4 15,9 15,7 15,3 28 15 45 24 SSW 1008,9 17 0 0,0
18.09.2018 01:00:00 16,9 13,2 16,0 15,7 15,3 25 14 47 26 SSW 1009,1 29 0 0,0
18.09.2018 00:00:00 17,9 11,2 17,0 15,8 15,3 28 15 41 22 SSW 1009,1 44 0 0,0
17.09.2018 23:00:00 18,5 12,0 14,7 15,9 15,3 20 11 31 17 SSW 1008,9 44 0 0,0
17.09.2018 22:00:00 17,7 11,3 15,3 15,9 15,3 9 5 11 6 S 1009,4 47 0 0,0
17.09.2018 21:00:00 18,8 11,4 15,9 15,9 15,3 7 4 16 8 SSE 1009,8 53 0 0,0
17.09.2018 20:00:00 19,4 11,7 18,6 15,8 15,3 9 5 15 8 SE 1010,1 56 39 0,0
17.09.2018 19:00:00 22,2 10,7 24,8 15,7 15,3 9 5 23 13 SE 1010,6 17 60 0,0
17.09.2018 18:00:00 23,2 10,9 26,3 15,6 15,3 18 10 28 15 ESE 1011,1 20 60 0,0
17.09.2018 17:00:00 26,1 9,4 29,8 15,4 15,3 21 12 35 19 S 1011,7 48 60 0,0
17.09.2018 16:00:00 26,1 9,0 30,6 15,2 15,3 20 11 35 19 S 1012,6 42 60 0,0
17.09.2018 15:00:00 25,2 9,5 28,3 15,1 15,3 22 12 37 20 S 1013,8 20 60 0,0
17.09.2018 14:00:00 23,3 9,3 27,1 15,0 15,3 23 12 35 19 S 1015,0 54 60 0,0
17.09.2018 13:00:00 21,5 10,3 24,2 14,8 15,3 20 11 34 18 S 1015,8 59 47 0,0
17.09.2018 12:00:00 20,4 9,3 23,0 14,8 15,3 19 10 31 17 S 1016,5 57 60 0,0
17.09.2018 11:00:00 17,7 11,5 18,9 14,7 15,3 19 10 27 15 S 1016,8 20 60 0,0
17.09.2018 10:00:00 15,6 10,8 13,1 14,8 15,3 14 8 20 11 SSE 1016,9 19 32 0,0
17.09.2018 09:00:00 12,1 11,2 4,5 14,9 15,3 11 6 14 8 SE 1017,9 19 1 0,0
17.09.2018 08:00:00 12,1 11,5 3,8 15,0 15,3 6 3 7 4 SE 1018,0 0,6 0 0,0
17.09.2018 07:00:00 11,7 11,1 4,4 15,1 15,3 5 3 7 4 SSE 1018,4 0,1 0 0,0
17.09.2018 06:00:00 11,4 10,3 4,8 15,1 15,3 3 1 9 5 S 1018,4 0,1 0 0,2
17.09.2018 05:00:00 11,8 11,0 5,5 15,2 15,3 4 2 7 4 SSW 1018,8 0,5 0 0,0
17.09.2018 04:00:00 12,1 11,2 7,7 15,3 15,3 5 3 13 7 W 1019,1 5 0 0,0
17.09.2018 03:00:00 12,4 11,3 6,1 15,4 15,3 8 4 11 6 W 1019,8 10 0 0,0
17.09.2018 02:00:00 13,4 11,3 7,4 15,4 15,3 3 2 11 6 SW 1019,8 18 0 0,0
17.09.2018 01:00:00 13,1 11,3 7,1 15,5 15,3 9 5 12 6 WSW 1020,4 15 0 0,0
17.09.2018 00:00:00 13,2 10,7 7,5 15,6 15,3 5 3 11 6 SW 1020,4 20 0 0,0
16.09.2018 23:00:00 13,5 10,3 6,5 15,6 15,3 8 4 9 5 SSW 1020,4 20 0 0,0
16.09.2018 22:00:00 13,6 9,8 7,3 15,7 15,3 6 3 8 5 SSE 1020,1 19 0 0,0
16.09.2018 21:00:00 13,9 9,9 9,0 15,7 15,3 5 3 14 8 S 1019,9 37 0 0,0
16.09.2018 20:00:00 16,4 10,0 15,1 15,7 15,3 11 6 25 14 WSW 1020,0 20 42 0,0
16.09.2018 19:00:00 20,0 7,0 21,9 15,6 15,3 16 9 31 17 WSW 1019,8 20 60 0,0
16.09.2018 18:00:00 21,3 9,2 24,6 15,5 15,3 19 10 36 20 WSW 1019,1 20 60 0,0
16.09.2018 17:00:00 22,9 8,9 27,2 15,4 15,3 21 11 37 20 SSW 1018,7 58 60 0,0
16.09.2018 16:00:00 22,9 8,6 24,0 15,2 15,4 21 12 34 19 SSW 1019,1 59 52 0,0
16.09.2018 15:00:00 20,7 10,2 22,8 15,1 15,3 15 8 27 15 S 1019,7 20 21 0,0
16.09.2018 14:00:00 20,2 10,6 23,1 15,0 15,4 13 7 29 16 WSW 1020,5 20 18 0,0
16.09.2018 13:00:00 20,9 11,2 21,8 15,0 15,4 14 8 25 13 SW 1020,3 19 41 0,0
16.09.2018 12:00:00 18,3 11,1 19,1 14,9 15,3 16 9 23 12 SSW 1020,8 20 0 0,0
16.09.2018 11:00:00 16,9 10,7 15,5 14,9 15,3 17 9 24 13 S 1020,5 20 51 0,0
16.09.2018 10:00:00 13,9 9,5 12,8 14,9 15,3 15 8 21 11 S 1020,5 20 0 0,0
16.09.2018 09:00:00 13,0 9,1 11,1 15,0 15,3 13 7 17 9 S 1020,7 20 1 0,0
16.09.2018 08:00:00 11,8 8,3 9,8 15,0 15,3 15 8 20 11 S 1020,6 45 0 0,0
16.09.2018 07:00:00 11,1 8,3 9,2 15,1 15,4 14 7 18 10 S 1020,6 20 0 0,0
16.09.2018 06:00:00 10,6 8,4 8,9 15,2 15,4 11 6 16 8 S 1020,9 19 0 0,0
16.09.2018 05:00:00 10,7 8,3 8,7 15,3 15,4 10 6 15 8 S 1021,4 17 0 0,0
16.09.2018 04:00:00 12,3 9,7 10,1 15,3 15,4 10 6 15 8 SSE 1021,6 19 0 0,0
16.09.2018 03:00:00 12,1 11,0 9,4 15,4 15,4 8 5 11 6 SSE 1022,3 10 0 0,0
16.09.2018 02:00:00 12,1 10,5 8,8 15,5 15,4 4 2 12 6 SE 1022,9 14 0 0,0
16.09.2018 01:00:00 11,6 10,0 9,7 15,5 15,4 10 6 16 9 SE 1023,4 13 0 0,0
16.09.2018 00:00:00 11,5 9,7 9,6 15,6 15,4 8 5 16 9 SE 1024,2 15 0 0,0
15.09.2018 23:00:00 12,0 9,9 9,4 15,7 15,4 8 5 11 6 SE 1024,8 17 0 0,0
15.09.2018 22:00:00 11,9 9,6 9,7 15,8 15,4 8 5 11 6 SE 1024,9 17 0 0,0
15.09.2018 21:00:00 12,4 9,8 7,9 15,8 15,4 6 4 8 5 ESE 1024,6 16 0 0,0
15.09.2018 20:00:00 14,8 10,4 13,2 15,7 15,4 4 2 11 6 E 1024,5 19 44 0,0
15.09.2018 19:00:00 15,8 10,3 18,0 15,7 15,4 8 4 17 9 NE 1024,4 20 55 0,0
15.09.2018 18:00:00 16,4 10,3 18,4 15,6 15,4 10 5 19 10 N 1024,7 20 25 0,0
15.09.2018 17:00:00 17,7 11,3 19,4 15,4 15,4 10 6 19 10 NW 1024,9 19 16 0,0
15.09.2018 16:00:00 17,5 11,3 20,2 15,3 15,4 11 6 23 12 NW 1025,4 19 48 0,0
15.09.2018 15:00:00 17,7 10,8 21,1 15,1 15,4 11 6 19 10 WNW 1025,7 19 54 0,0
15.09.2018 14:00:00 17,5 10,6 19,7 15,0 15,4 8 4 19 10 NW 1025,9 19 43 0,0
15.09.2018 13:00:00 17,3 10,2 23,4 14,9 15,4 10 6 20 11 WNW 1026,4 19 60 0,0
15.09.2018 12:00:00 16,7 10,3 21,4 14,8 15,4 11 6 24 13 WNW 1026,5 19 60 0,0
15.09.2018 11:00:00 16,2 11,1 19,3 14,8 15,4 13 7 24 13 WNW 1026,2 18 60 0,0
15.09.2018 10:00:00 15,4 11,2 16,8 14,8 15,4 14 8 21 12 W 1026,0 19 60 0,0
15.09.2018 09:00:00 13,8 11,3 10,3 14,8 15,4 12 7 17 9 W 1025,8 17 47 0,0
15.09.2018 08:00:00 11,3 9,9 9,8 14,9 15,4 11 6 17 9 WNW 1025,4 14 0 0,0
15.09.2018 07:00:00 11,6 10,0 10,5 15,0 15,4 13 7 21 11 W 1025,1 15 0 0,0
15.09.2018 06:00:00 11,7 10,1 10,6 15,0 15,4 13 7 19 11 W 1024,9 16 0 0,0
15.09.2018 05:00:00 12,0 10,4 10,8 15,1 15,4 16 8 22 12 W 1024,7 18 0 0,0
15.09.2018 04:00:00 11,9 10,5 10,3 15,1 15,4 16 9 21 11 W 1024,6 18 0 0,0
15.09.2018 03:00:00 12,4 11,0 10,6 15,2 15,4 18 10 22 12 W 1024,9 17 0 0,0
15.09.2018 02:00:00 11,8 10,0 10,6 15,2 15,4 13 7 19 11 W 1025,1 17 0 0,0
15.09.2018 01:00:00 12,0 10,7 10,1 15,3 15,5 14 8 19 10 W 1024,8 17 0 0,0
15.09.2018 00:00:00 11,9 10,1 10,5 15,3 15,5 14 8 21 11 W 1024,7 19 0 0,0
14.09.2018 23:00:00 11,5 9,6 9,3 15,4 15,5 13 7 19 10 WSW 1024,7 20 0 0,0
14.09.2018 22:00:00 11,1 8,8 9,6 15,4 15,4 11 6 17 9 SW 1024,4 43 0 0,0
14.09.2018 21:00:00 12,5 9,5 11,3 15,4 15,5 13 7 22 12 WSW 1023,9 50 0 0,0
14.09.2018 20:00:00 14,3 9,3 13,6 15,4 15,5 20 11 36 20 W 1023,5 52 44 0,0
14.09.2018 19:00:00 15,5 8,9 15,5 15,4 15,5 28 15 38 20 W 1023,5 54 30 0,0
14.09.2018 18:00:00 15,7 9,1 16,5 15,4 15,5 27 15 40 22 W 1023,2 57 39 0,0
14.09.2018 17:00:00 16,1 9,3 17,3 15,3 15,5 27 14 37 20 W 1023,2 20 11 0,0
14.09.2018 16:00:00 15,9 9,6 16,4 15,2 15,5 21 11 32 17 W 1023,5 54 7 0,0
14.09.2018 15:00:00 14,8 10,0 12,4 15,2 15,5 11 6 47 26 WSW 1023,7 60 0 0,2
14.09.2018 14:00:00 15,4 8,6 16,2 15,2 15,5 22 12 35 19 W 1023,6 59 12 0,0
14.09.2018 13:00:00 16,4 8,6 17,0 15,1 15,5 12 6 27 15 WNW 1023,4 20 15 0,0
14.09.2018 12:00:00 15,5 7,3 16,2 15,1 15,5 18 10 30 16 WNW 1023,7 57 43 0,0
14.09.2018 11:00:00 14,5 7,8 14,6 15,1 15,5 14 8 21 11 W 1023,4 20 0 0,0
14.09.2018 10:00:00 13,8 8,8 12,9 15,1 15,5 13 7 22 12 W 1023,0 60 0 0,0
14.09.2018 09:00:00 12,8 8,7 9,8 15,2 15,5 11 6 15 8 WSW 1022,9 20 11 0,0
14.09.2018 08:00:00 10,4 7,8 3,2 15,3 15,5 10 5 14 8 WSW 1022,9 60 0 0,0
14.09.2018 07:00:00 9,1 6,5 3,4 15,4 15,5 6 3 10 5 W 1023,0 20 0 0,0
14.09.2018 06:00:00 10,0 7,4 6,8 15,4 15,5 6 3 15 8 W 1023,0 19 0 0,0

tt = Température de l'air
td = dewpoint
tt 5cm = Température de l'air 5cm
tt -20cm = Température de l'air -20cm
tt -100cm = Température de l'air -100cm
ff = Vitesse du vent
fx = gusts
dd = Direction du vent
ppp = reduced air pressure
vv = visibility
sd = Ensoleillement
rr = Quantités de précipitations

stations d'obs. à proximité